Вернуться в каталог

STARLINK-11423

АктивенСвязьVLEO
NORAD 61950·PAYLOAD·🇺🇸 United States

Запущен Nov 14, 2024 с Vandenberg Space Force Base

Loading…

Ближайшие Пролёты (ближайшие 24 часа)

TLE

СвежийSource: CelesTrak SupGP

Эпоха: Sep 15, 2026, 03:08 UTC

1 61950C 24209M   26258.13104167  .00015831  00000+0  13038-3 0  2587
2 61950  53.1568 157.3876 0001140  87.3173 207.2706 15.69707065    14

Отслеживайте STARLINK-11423 в реальном времени с AllMySat

Download on the App Store